sat.trackr.live / text

‹ back to catalog

KUIPER-00059

NORAD 64519 · 2025-134V

PAYLOAD ACTIVE UNKNOWN

§ Identity

Operator
Country
US
Launch date
2025-06-23
Launch site
AFETR
Launch vehicle
Mass (kg)
RCS (m²)

External: N2YO · Heavens-Above · Gunter

§ Orbital elements

Epoch: 2026-05-25T05:20:31.274016Z

Period
97.30 min
Inclination
51.8980°
Eccentricity
0.0000983
Mean motion
14.79951076 rev/d
Perigee alt
628.8 km
Apogee alt
630.2 km
Semi-major
7,007.6 km
B*
4.6565e-4
RAAN
242.1588°
Arg perigee
88.4873°
Mean anomaly
271.6202°
Rev number
5,158

§ Raw data

KUIPER-000591 64519U 25134V   26145.22258419  .00003332  00000+0  46565-3 0  99902 64519  51.8980 242.1588 0000983  88.4873 271.6202 14.79951076 51584

JSON: /api/v1/satellites/64519 · /tle

For live sub-satellite position, see the globe view (requires WebGL).

§ Visibility from observer

Set your observer location to see the next 7 days of passes ≥ 10°. The values pass through the URL so the page stays shareable.

No JS? Fill the form by hand. The geolocation button needs JavaScript.